Regional Weather Roundup
Issued by NWS

Home | Current Version | Previous Version | Text Only | Print | Product List | Glossary Off
Versions: 1 2 3 4 5 6 7 8 9 10 11 12 13 14 15 16 17 18 19 20 21 22 23 24 25 26 27 28 29 30 31 32 33 34 35 36 37 38 39 40 41 42 43 44 45 46 47 48 49 50

000
ASUS43 KLSX 231107
RWRMO

WEATHER SUMMARY FOR MISSOURI
NATIONAL WEATHER SERVICE SPRINGFIELD MO
600 AM CDT SAT AUG 23 2014

NOTE: "FAIR" INDICATES FEW OR NO CLOUDS BELOW 12,000 FEET WITH NO
       SIGNIFICANT WEATHER AND/OR OBSTRUCTIONS TO VISIBILITY.
       CURRENT SKY AND/OR WEATHER CONDITIONS ARE NOT AVAILABLE FOR
       CHILLICOTHE AND FARMINGTON.

MOZ001>031-035>038-043-044-053-054-231200-
...NORTHERN AND WESTERN MISSOURI...

CITY           SKY/WX    TMP DP  RH WIND       PRES   REMARKS
KANSAS CTY INT MOCLDY    79  69  71 S13       29.89S
KANSAS C DTWN  PTCLDY    81  69  67 S10       29.88S
LEE`S SUMMIT   PTCLDY    77  70  79 S8        29.92S
ST JOSEPH      MOCLDY    75  72  90 NW5       29.90R
CHILLICOTHE      N/A     79  75  87 SE3       29.90F
KIRKSVILLE     CLEAR     77  75  93 SE6       29.94S FOG

$$
MOZ066>068-077>081-088>096-101>105-231200-
...SOUTHWEST MISSOURI...

CITY           SKY/WX    TMP DP  RH WIND       PRES   REMARKS
SPRINGFIELD    CLEAR     75  71  87 S8        29.99S
JOPLIN         CLEAR     79  69  71 S13       29.96F

$$
MOZ032>034-039>042-045>050-055>058-069>072-231200-
...CENTRAL MISSOURI...

CITY           SKY/WX    TMP DP  RH WIND       PRES   REMARKS
COLUMBIA       CLEAR     77  73  87 S3        29.95R
JEFFERSON CITY CLEAR     77  72  84 E3        29.94R
ROLLA          CLEAR     74  70  87 SW8       29.98R
SEDALIA        CLEAR     79  71  76 S10       29.95R
WHITEMAN AFB   CLEAR     74  56  53 S8        29.93R
OSAGE BEACH    CLEAR     73  68  83 CALM      29.97R

$$
MOZ051-052-059>065-231200-
...EAST CENTRAL MISSOURI...

CITY           SKY/WX    TMP DP  RH WIND       PRES   REMARKS
ST LOUIS INTL  MOCLDY    81  73  76 CALM      29.93S
SPIRIT OF STL  PTCLDY    75  73  93 CALM      29.92S
ST CHARLES     CLEAR     76  74  93 CALM      29.91S FOG

$$
MOZ072>076-082>087-097>100-106>115-231200-
...SOUTH CENTRAL AND SOUTHEAST MISSOURI...

CITY           SKY/WX    TMP DP  RH WIND       PRES   REMARKS
CAPE GIRARDEAU CLEAR     75  73  93 SW3       29.96R
FARMINGTON     CLEAR     75  72  88 SW3       30.00R
POPLAR BLUFF   CLEAR     76  72  87 SW3       29.96R
WEST PLAINS    CLEAR     75  71  87 W5        30.03R

$$


USA.gov is the U.S. government's official web portal to all federal, state and local government web resources and services.